User: anonymous   Login
Location: Unspecified
(0.0000°N, 0.0000°E)
Time: 11:52:09
(UTC+00:00)
Language:

SOMP 2 - Orbit

View from above orbital plane
View from above orbital plane
View from above satellite
View from above satellite

Ground track
Ground track

The orbit data is extracted from the following two-line orbital elements,

1 42701U 98067LJ  18169.02700986  .00019096  00000-0  15856-3 0  9994
2 42701  51.6363 351.8507 0003850 240.2216 119.8398 15.70207402 62120
Epoch (UTC): 18 June 2018 00:38:53
Eccentricity: 0.0003850
inclination: 51.6363°
perigee height: 356 km
apogee height: 361 km
right ascension of ascending node: 351.8507°
argument of perigee: 240.2216°
revolutions per day: 15.70207402
mean anomaly at epoch: 119.8398°
orbit number at epoch: 6212

The dashed part of the orbit path shows where the satellite is in the earth's shadow,  

DLR